Location: Leiter
(44.7178°N, 106.2687°W)
Time: 16:51:19
(UTC+00:00)

ESTCUBE 1 - Pass Details

Date: 02 July 2022
Orbit: 645 x 657 km, 97.9° (Epoch: 19 August)

Event Time Altitude Azimuth Distance (km) Brightness Sun altitude
Exits shadow 05:43:50 28° 212° (SSW) 1,209 ? -19.5°
Maximum altitude 05:45:36 41° 262° (W) 936 ? -19.6°
Drops below altitude 10° 05:49:52 10° 333° (NNW) 2,059 ? -19.9°
Sets 05:52:12 0° 341° (NNW) 2,976 ? -20.0°
